Kezdőlap
METAR-TAF:

METAR-TAF

Repülőterek :

Tri-Township Airport

Savanna, Illinois, Amerikai Egyesült Államok

földrajzi szélesség: 42-02-45N, földrajzi hosszúság: 090-06-28W, magasság: 188 m

Jelenlegi meteorológiai megfigyelések

A jelentés 29 perccel ezelõtt készült, 10:40 UTC
Szélcsend
Hőmérséklet 16°C
Páratartalom 94%
Légköri nyomás 1020 hPa
Látótávolság: 11.3 km
Derült ég

METAR: KSFY 211040Z AUTO 00000KT 7SM CLR 16/15 A3013 RMK AO2

Idő: 06:09 (11:09 UTC)


TAF: hiányzik

Meteorológiai megfigyelések és előrejelzések több, mint 4000 repülőtéren (METAR és TAF jelentéseket).

A térképen piros és sárga pontok jelzik az elérhető meteorológiai állomásokat.

Mozgassa az egeret a pont fölött, hogy megjelenjen az állomás neve.

Azután kattintson az időjárási megfigyelések és előrejelzések megtekintéséhez.

A térkép megváltoztatása: kattintson a fekete keresztel jelölt zöld gombra ráközelítéshez, a vonallal jelölt zöld gombra távolításhoz, vagy a zöld nyilakra a szomszédos térképek eléréséhez.


METAR-TAF: